[ hide orbit diagram ]
For accurate long-term ephemerides, please instead use our Horizons system.This orbit viewer was implemented using two-body methods, and hence should not be used for determining accurate long-term trajectories (over several years or decades) or planetary encounter circumstances.
Orbital Elements at Epoch 2459000.5 (2020-May-31.0) TDB
Reference: JPL 33 (heliocentric ecliptic J2000)
Element | Value | Uncertainty (1-sigma) | Units |
e | .1390855113905432 | 3.0179e-08 | |
a | 2.753322400324559 | 9.7578e-09 | au |
q | 2.37037514625238 | 8.4253e-08 | au |
i | 4.530991411723289 | 3.8105e-06 | deg |
node | 214.6133795107501 | 4.363e-05 | deg |
peri | 208.3412251475849 | 4.5946e-05 | deg |
M | 327.1125530355172 | 1.4215e-05 | deg |
tp | 2459152.944474996930 (2020-Oct-30.44447500) | 6.6068e-05 | TDB |
period | 1668.722143684891 4.57 | 8.8709e-06 2.429e-08 | d yr |
n | .2157339383086533 | 1.1468e-09 | deg/d |
Q | 3.136269654396738 | 1.1115e-08 | au |
|
| | Orbit Determination Parameters
Additional Information
|
[ show covariance matrix ]
Physical Parameter Table
Parameter |
Symbol |
Value |
Units |
Sigma |
Reference |
Notes |
absolute magnitude |
H |
13.2 |
|
n/a |
MPO358781 |
|
diameter |
diameter |
6.221 |
km |
0.076 |
urn:nasa:pds:neowise_diameters_albedos::2.0[mainbelt] (http://adsabs.harvard.edu/abs/2011ApJ...741...68M) |
|
geometric albedo |
albedo |
0.263 |
|
0.034 |
urn:nasa:pds:neowise_diameters_albedos::2.0[mainbelt] (http://adsabs.harvard.edu/abs/2011ApJ...741...68M) |
|
|
15495 Bogie | Discovered 1999 Feb. 17 by J. Broughton at Reedy Creek Observatory. |
American actor Humphrey Bogart (1899-1957) appeared on Broadway and was the star of many a Hollywood film. Often cast in the tough-guy role, Bogart won the Academy Award for best actor in 1951 and was voted male star of the twentieth century by the American Film Institute in 1999. |
NOTE: some special characters may not display properly (any characters within {} are an attempt to place the proper accent above a character) |
Reference: 20010509/MPCPages.arc | Last Updated: 2009-05-11 |
|
Alternate Designations
1999 DF2 = 1995 KR4 = 1997 WW11 |
|
|